TimeCDT,TemperatureF,Dew PointF,Humidity,Sea Level PressureIn,VisibilityMPH,Wind Direction,Wind SpeedMPH,Gust SpeedMPH,PrecipitationIn,Events,Conditions,WindDirDegrees,DateUTC
12:56 AM,37.0,28.9,73,30.22,10.0,SE,9.2,-,N/A,,Clear,140,2013-03-28 05:56:00
1:56 AM,36.0,28.9,76,30.22,10.0,SE,10.4,-,N/A,,Clear,140,2013-03-28 06:56:00
2:56 AM,33.1,28.0,82,30.22,10.0,SE,8.1,-,N/A,,Clear,140,2013-03-28 07:56:00
3:56 AM,30.9,27.0,85,30.22,10.0,Calm,Calm,-,N/A,,Clear,0,2013-03-28 08:56:00
4:56 AM,28.9,26.1,89,30.22,10.0,SE,3.5,-,N/A,,Clear,130,2013-03-28 09:56:00
5:56 AM,28.0,25.0,88,30.22,7.0,Calm,Calm,-,N/A,,Clear,0,2013-03-28 10:56:00
6:56 AM,28.0,25.0,88,30.23,7.0,Calm,Calm,-,N/A,,Clear,0,2013-03-28 11:56:00
7:56 AM,27.0,24.1,89,30.24,5.0,ESE,3.5,-,N/A,,Clear,120,2013-03-28 12:56:00
8:56 AM,34.0,28.9,82,30.25,7.0,SE,6.9,-,N/A,,Clear,140,2013-03-28 13:56:00
9:56 AM,41.0,30.9,67,30.24,10.0,SE,5.8,-,N/A,,Clear,140,2013-03-28 14:56:00
10:56 AM,45.0,32.0,60,30.24,10.0,South,6.9,-,N/A,,Clear,170,2013-03-28 15:56:00
11:56 AM,50.0,32.0,50,30.22,10.0,SSE,8.1,-,N/A,,Scattered Clouds,150,2013-03-28 16:56:00
12:56 PM,50.0,30.9,48,30.22,10.0,South,10.4,-,N/A,,Overcast,170,2013-03-28 17:56:00
1:56 PM,52.0,32.0,47,30.22,10.0,SSE,8.1,-,N/A,,Overcast,150,2013-03-28 18:56:00
2:56 PM,53.1,30.0,41,30.19,10.0,SSE,11.5,-,N/A,,Overcast,150,2013-03-28 19:56:00
3:56 PM,57.0,28.9,34,30.17,10.0,SE,13.8,-,N/A,,Mostly Cloudy,130,2013-03-28 20:56:00
4:56 PM,55.9,28.0,34,30.17,10.0,ESE,8.1,-,N/A,,Clear,120,2013-03-28 21:56:00
5:56 PM,55.9,28.9,36,30.18,10.0,SE,8.1,-,N/A,,Mostly Cloudy,130,2013-03-28 22:56:00
6:56 PM,53.1,28.9,40,30.19,10.0,East,8.1,-,N/A,,Overcast,80,2013-03-28 23:56:00
7:56 PM,48.9,30.0,48,30.20,10.0,ESE,5.8,-,N/A,,Overcast,120,2013-03-29 00:56:00
8:56 PM,45.0,30.0,56,30.19,10.0,SE,9.2,-,N/A,,Clear,130,2013-03-29 01:56:00
9:56 PM,42.1,30.0,62,30.20,10.0,ESE,8.1,-,N/A,,Clear,110,2013-03-29 02:56:00
10:56 PM,39.9,30.0,68,30.20,10.0,ESE,8.1,-,N/A,,Partly Cloudy,110,2013-03-29 03:56:00
11:56 PM,39.9,30.0,68,30.20,10.0,SE,9.2,-,N/A,,Clear,130,2013-03-29 04:56:00